Terminal Aerodrome Forecast
Issued by NWS

Home | Current Version | Previous Version | Graphics & Text | Print | Product List | Glossary Off
Versions: 1 2 3 4 5 6 7 8 9 10 11 12 13 14 15 16 17 18 19 20 21 22 23 24 25 26 27 28 29

000
FTUS43 KDDC 262044 AAB
TAFHYS
TAF AMD
KHYS 262044Z 2621/2718 23012G20KT P6SM BKN070
     FM262200 31015G25KT P6SM BKN100
     FM270100 VRB06KT P6SM BKN100=

USA.gov is the U.S. government's official web portal to all federal, state and local government web resources and services.